Location: Pinon Hills
(34.4429°N, 117.6403°W)
Time: 11:46:40
(UTC-07:00)

Amateur Radio Satellites - All Passes

Search period start: 25 July 2017 11:16
Search period end: 26 July 2017 11:16
Location: Pinon Hills, 34.4429°N, 117.6403°W

Satellite Date Start Highest point End Downlink Frequencies (MHz)
Time Altitude Azimuth
EO-88 25 Jul 11:17:04 11:20:19 31° 287° (WNW) 11:23:33 145.990 - 145.960
LO-87 25 Jul 11:20:25 11:23:24 24° 97° (E) 11:26:21 145.935 - 145.965
BEESAT 3 25 Jul 11:23:17 11:24:43 12° 108° (ESE) 11:26:11 437.485
FO-29 25 Jul 11:23:34 11:28:22 18° 270° (W) 11:33:21 435.910
NO-84 25 Jul 11:25:24 11:28:01 27° 319° (NW) 11:30:47 435.350 FM
ESTCUBE 1 25 Jul 11:27:15 11:30:35 20° 95° (E) 11:33:55 437.505/2401.250
PRISM 25 Jul 11:28:40 11:29:43 11° 267° (W) 11:30:47 437.425
DUCHIFAT 1 25 Jul 11:50:08 11:54:15 50° 74° (ENE) 11:58:21 145.980
POLYITAN 1 25 Jul 11:53:02 11:57:18 72° 75° (ENE) 12:01:33 437.675
BEESAT 2 25 Jul 12:04:38 12:05:23 10° 107° (ESE) 12:06:08 435.950
QB50P2 25 Jul 12:06:08 12:10:22 71° 258° (WSW) 12:14:39 145.880/145.840
VELOX 1 25 Jul 12:12:40 12:14:28 12° 93° (E) 12:16:16 145.980
NANOSAT C BR1 25 Jul 12:17:50 12:22:03 63° 259° (W) 12:26:16 145.865
BUGSAT 1 25 Jul 12:17:54 12:21:31 28° 71° (ENE) 12:25:09 437.445
EO-79 25 Jul 12:18:07 12:22:17 55° 260° (W) 12:26:30 145.935-145.965
AO-85 25 Jul 12:24:04 12:28:06 69° 116° (ESE) 12:32:01 145.980
LO-87 25 Jul 12:54:26 12:56:35 15° 290° (WNW) 12:58:44 145.935 - 145.965
BEESAT 3 25 Jul 12:58:00 13:01:50 45° 302° (WNW) 13:05:43 437.485
SPROUT 25 Jul 12:58:28 13:02:39 53° 100° (E) 13:06:47 437.525
Oscar 19 25 Jul 13:00:58 13:05:37 37° 71° (ENE) 13:10:17 437.125/150
ESTCUBE 1 25 Jul 13:03:24 13:07:22 31° 289° (WNW) 13:11:20 437.505/2401.250
DUCHIFAT 1 25 Jul 13:29:14 13:30:08 11° 268° (W) 13:31:01 145.980
Gurwin Techsat 1B 25 Jul 13:30:03 13:35:05 45° 72° (ENE) 13:40:08 435.225
AO-7 25 Jul 13:32:19 13:36:15 14° 52° (NE) 13:40:10 .
BEESAT 2 25 Jul 13:38:45 13:42:37 50° 302° (WNW) 13:46:32 435.950
PCSat 25 Jul 13:46:24 13:50:55 26° 55° (NE) 13:55:24 145.827
VELOX 1 25 Jul 13:46:50 13:51:08 49° 286° (WNW) 13:55:25 145.980
DX 1 25 Jul 13:50:47 13:55:02 49° 100° (E) 13:59:16 434.975-435.025
50 SAT 25 Jul 13:51:53 13:55:20 89° 103° (ESE) 13:58:45 437.505
BUGSAT 1 25 Jul 13:53:45 13:56:49 19° 265° (W) 13:59:54 437.445
UKube-1 25 Jul 14:32:22 14:36:42 81° 286° (WNW) 14:41:01 .
SPROUT 25 Jul 14:36:50 14:38:01 11° 294° (WNW) 14:39:11 437.525
Oscar 19 25 Jul 14:41:08 14:44:59 21° 265° (W) 14:48:51 437.125/150
BEESAT 25 Jul 14:43:31 14:44:13 10° 92° (E) 14:44:54 436.000
ITAMSAT 1 25 Jul 14:53:33 14:58:09 32° 70° (ENE) 15:02:45 435.822/435.867
ITUPSAT 1 25 Jul 14:55:17 14:57:55 15° 94° (E) 15:00:33 437.325
Gurwin Techsat 1B 25 Jul 15:11:34 15:15:11 18° 266° (W) 15:18:48 435.225
AO-7 25 Jul 15:19:16 15:27:35 74° 70° (ENE) 15:35:56 .
O/OREOS (USA 219) 25 Jul 15:20:41 15:25:11 82° 290° (WNW) 15:29:40 437.305
RS-15 25 Jul 15:22:11 15:33:56 61° 111° (ESE) 15:45:58 29.354- 29.394
SO-50 25 Jul 15:25:44 15:30:14 59° 59° (ENE) 15:34:46 436.795
DX 1 25 Jul 15:28:49 15:30:44 13° 295° (WNW) 15:32:40 434.975-435.025
PCSat 25 Jul 15:29:23 15:34:21 37° 251° (WSW) 15:39:17 145.827
MOZHAYETS 4 25 Jul 15:36:44 15:40:49 32° 97° (E) 15:44:54
CUBESAT XI-V 25 Jul 16:13:55 16:16:35 15° 93° (E) 16:19:14 437.345
BEESAT 25 Jul 16:17:37 16:22:20 64° 285° (WNW) 16:27:01 436.000
ITUPSAT 1 25 Jul 16:31:23 16:35:56 46° 287° (WNW) 16:40:27 437.325
ITAMSAT 1 25 Jul 16:33:16 16:37:34 26° 264° (W) 16:41:53 435.822/435.867
DOVE 4 25 Jul 16:54:36 16:58:45 29° 70° (ENE) 17:03:05 437.250
YUBILEINY 25 Jul 17:05:27 17:06:45 10° 76° (ENE) 17:08:04 435.215
SO-50 25 Jul 17:08:33 17:10:10 12° 253° (WSW) 17:11:46 436.795
XW-2D 25 Jul 17:13:31 17:15:04 12° 68° (ENE) 17:16:37 145.860 - 145.880
MOZHAYETS 4 25 Jul 17:14:26 17:17:43 20° 291° (WNW) 17:21:00
AO-7 25 Jul 17:15:13 17:20:55 20° 266° (W) 17:26:40 .
XW-2B 25 Jul 17:22:49 17:25:05 16° 70° (ENE) 17:27:21 145.730 - 145.750
RS-15 25 Jul 17:35:44 17:46:58 41° 312° (NW) 17:58:24 29.354- 29.394
XW-2C 25 Jul 17:39:13 17:42:21 26° 72° (ENE) 17:45:30 145.795 - 145.815
NUDT-PHONESAT 25 Jul 17:44:44 17:47:35 21° 71° (ENE) 17:50:25 437.300
HO-68 25 Jul 17:47:31 17:51:40 17° 59° (ENE) 17:55:49 435.675
CUBESAT XI-V 25 Jul 17:49:40 17:54:06 44° 286° (WNW) 17:58:33 437.345
KKS-1 25 Jul 17:49:53 17:54:23 85° 286° (WNW) 17:58:49 437.445
KAITUO 1B 25 Jul 17:59:29 18:02:51 34° 74° (ENE) 18:06:14 145.475/437.950
NO-84 25 Jul 18:00:31 18:04:02 31° 42° (NE) 18:07:46 435.350 FM
LilacSat-2 25 Jul 18:02:42 18:06:24 58° 76° (ENE) 18:10:07 437.200
CUTE 1.7 + AOD 2 25 Jul 18:15:45 18:17:06 11° 66° (ENE) 18:18:27 437.475
XW-2F 25 Jul 18:15:52 18:19:36 80° 78° (ENE) 18:23:20 145.980 - 146.000
STARS 25 Jul 18:17:52 18:22:16 79° 101° (ESE) 18:26:38 437.465
CUTE-I 25 Jul 18:23:55 18:29:17 84° 76° (ENE) 18:34:41 437.470
DOVE 4 25 Jul 18:32:18 18:36:19 26° 266° (W) 18:40:33 437.250
XW-2D 25 Jul 18:45:27 18:48:53 35° 262° (W) 18:52:21 145.860 - 145.880
XW-2A 25 Jul 18:52:47 18:54:47 15° 70° (ENE) 18:56:48 145.665 - 145.685
YUBILEINY 25 Jul 18:53:07 19:01:54 74° 93° (E) 19:10:42 435.215
Tancredo 1 25 Jul 18:55:07 18:57:39 27° 131° (SE) 19:00:12 437.200
XW-2B 25 Jul 18:55:48 18:59:01 27° 263° (W) 19:02:14 145.730 - 145.750
UWE-3 25 Jul 18:58:32 19:00:03 12° 66° (ENE) 19:01:34 435.000/436.395/437.385
AAUSAT CUBESAT 2 25 Jul 19:07:46 19:09:28 12° 67° (ENE) 19:11:10 437.432
XW-2C 25 Jul 19:14:10 19:16:30 16° 265° (W) 19:18:52 145.795 - 145.815
STRAND 1 25 Jul 19:17:47 19:21:24 19° 95° (E) 19:24:58 437.568
NUDT-PHONESAT 25 Jul 19:18:46 19:21:22 18° 265° (W) 19:23:58 437.300
nSIGHT-1 25 Jul 19:23:57 19:26:22 20° 129° (SE) 19:28:47 .
HO-68 25 Jul 19:31:16 19:38:29 84° 256° (WSW) 19:45:41 435.675
CUBEBUG 2 25 Jul 19:34:53 19:39:29 54° 75° (ENE) 19:43:59 437.445
KAITUO 1B 25 Jul 19:35:50 19:36:57 11° 267° (W) 19:38:05 145.475/437.950
NO-84 25 Jul 19:38:01 19:41:29 27° 234° (SW) 19:45:05 435.350 FM
CUTE 1.7 + AOD 2 25 Jul 19:48:23 19:52:26 49° 260° (W) 19:56:32 437.475
AO-73 25 Jul 19:48:33 19:51:47 20° 70° (ENE) 19:54:57 145.935
RS-15 25 Jul 19:58:15 20:04:28 15° 344° (NNW) 20:10:40 29.354- 29.394
SEEDS 25 Jul 19:59:06 20:03:11 61° 259° (W) 20:07:19 437.485
ISS 25 Jul 20:17:48 20:21:02 88° 153° (SSE) 20:24:18 437.550
XW-2A 25 Jul 20:24:38 20:27:19 21° 263° (W) 20:29:59 145.665 - 145.685
Tancredo 1 25 Jul 20:30:50 20:33:03 19° 326° (NW) 20:35:17 437.200
UWE-3 25 Jul 20:31:27 20:36:00 59° 260° (W) 20:40:26 435.000/436.395/437.385
AAUSAT CUBESAT 2 25 Jul 20:40:35 20:44:29 43° 261° (W) 20:48:25 437.432
ZACube-1 25 Jul 20:43:30 20:47:58 80° 258° (WSW) 20:52:21 437.345
YUBILEINY 25 Jul 20:53:20 20:59:28 20° 291° (WNW) 21:05:40 435.215
FO-29 25 Jul 20:53:52 20:56:07 12° 86° (E) 20:58:17 435.910
STRAND 1 25 Jul 20:55:55 21:00:40 40° 289° (WNW) 21:05:24 437.568
AO-85 25 Jul 20:58:22 21:01:43 22° 54° (NE) 21:05:15 145.980
nSIGHT-1 25 Jul 20:59:43 21:02:37 30° 323° (NW) 21:05:30 .
Oscar 11 25 Jul 21:08:26 21:12:40 61° 259° (W) 21:16:56 .
CUBEBUG 2 25 Jul 21:14:25 21:16:18 12° 268° (W) 21:18:10 437.445
BEESAT 3 25 Jul 21:18:06 21:21:39 30° 55° (NE) 21:25:08 437.485
AO-73 25 Jul 21:23:54 21:27:47 30° 263° (W) 21:31:38 145.935
HO-68 25 Jul 21:25:09 21:27:00 11° 270° (W) 21:28:52 435.675
DELFI C3 25 Jul 21:35:30 21:39:21 60° 77° (ENE) 21:43:15 145.870
EO-88 25 Jul 21:50:34 21:54:07 55° 76° (ENE) 21:57:41 145.990 - 145.960
UNISAT 6 25 Jul 21:53:45 21:56:41 18° 94° (E) 21:59:36 437.425
JUGNU 25 Jul 21:54:13 21:55:57 11° 165° (SSE) 21:57:41 437.505
ISS 25 Jul 21:56:38 21:57:55 12° 333° (NNW) 21:59:13 437.550
BEESAT 2 25 Jul 21:59:47 22:03:20 29° 55° (NE) 22:06:51 435.950
RS-15 25 Jul 22:17:19 22:24:37 17° 23° (NNE) 22:31:43 29.354- 29.394
ESTCUBE 1 25 Jul 22:24:48 22:26:41 13° 66° (ENE) 22:28:34 437.505/2401.250
M-CUBED/EXP-1 PRIME 25 Jul 22:28:03 22:30:44 15° 98° (E) 22:33:25 437.505
FO-29 25 Jul 22:35:10 22:42:11 85° 284° (WNW) 22:48:17 435.910
TIGRISAT 25 Jul 22:36:42 22:40:55 55° 100° (E) 22:45:04 435.000
AO-85 25 Jul 22:38:14 22:42:06 32° 246° (WSW) 22:46:13 145.980
BEESAT 3 25 Jul 22:56:17 22:58:57 18° 250° (WSW) 23:01:36 437.485
PRISM 25 Jul 23:09:54 23:14:02 63° 285° (WNW) 23:18:09 437.425
LO-87 25 Jul 23:25:11 23:28:47 68° 259° (W) 23:32:25 145.935 - 145.965
UNISAT 6 25 Jul 23:29:39 23:33:25 30° 288° (WNW) 23:37:08 437.425
BEESAT 2 25 Jul 23:37:56 23:40:52 19° 250° (WSW) 23:43:45 435.950
JUGNU 25 Jul 23:40:16 23:44:14 18° 174° (S) 23:48:12 437.505
POLYITAN 1 25 Jul 23:42:48 23:45:11 15° 94° (E) 23:47:33 437.675
SPROUT 25 Jul 23:48:27 23:51:59 26° 71° (ENE) 23:55:32 437.525
QB50P2 25 Jul 23:55:03 23:58:27 23° 96° (E) 00:01:49 145.880/145.840
ESTCUBE 1 25 Jul 23:58:38 00:02:59 52° 260° (W) 00:07:22 437.505/2401.250
M-CUBED/EXP-1 PRIME 26 Jul 00:00:48 00:05:16 48° 291° (WNW) 00:09:44 437.505
AIST 2D 26 Jul 00:01:41 00:05:09 72° 100° (E) 00:08:38 435.315
NANOSAT C BR1 26 Jul 00:06:03 00:09:33 25° 97° (E) 00:13:01 145.865
EO-79 26 Jul 00:06:31 00:10:11 29° 97° (E) 00:13:50 145.935-145.965
TIGRISAT 26 Jul 00:16:08 00:17:04 11° 295° (WNW) 00:17:59 435.000
50 SAT 26 Jul 00:20:44 00:22:54 16° 70° (ENE) 00:25:04 437.505
FO-29 26 Jul 00:23:08 00:25:54 13° 303° (WNW) 00:28:33 435.910
RS-15 26 Jul 00:29:19 00:41:01 52° 52° (NE) 00:52:04 29.354- 29.394
VELOX 1 26 Jul 00:39:52 00:44:17 89° 242° (WSW) 00:48:45 145.980
DX 1 26 Jul 00:42:59 00:46:39 27° 70° (ENE) 00:50:20 434.975-435.025
SRMSAT 26 Jul 00:45:07 00:47:01 11° 165° (SSE) 00:48:55 437.500
DUCHIFAT 1 26 Jul 01:13:00 01:17:03 50° 286° (WNW) 01:21:04 145.980
Oscar 19 26 Jul 01:16:57 01:20:18 17° 94° (E) 01:23:38 437.125/150
POLYITAN 1 26 Jul 01:17:13 01:21:03 35° 287° (WNW) 01:24:51 437.675
UKube-1 26 Jul 01:22:56 01:27:06 51° 74° (ENE) 01:31:18 .
SPROUT 26 Jul 01:24:27 01:27:47 22° 264° (W) 01:31:09 437.525
JUGNU 26 Jul 01:28:31 01:32:34 19° 184° (S) 01:36:37 437.505
QB50P2 26 Jul 01:30:47 01:34:05 23° 290° (WNW) 01:37:22 145.880/145.840
O/OREOS (USA 219) 26 Jul 01:34:10 01:38:40 78° 252° (WSW) 01:43:10 437.305
BUGSAT 1 26 Jul 01:37:40 01:41:44 79° 102° (ESE) 01:45:46 437.445
NANOSAT C BR1 26 Jul 01:41:56 01:45:04 21° 290° (WNW) 01:48:12 145.865
EO-79 26 Jul 01:42:47 01:45:42 19° 291° (WNW) 01:48:37 145.935-145.965
Gurwin Techsat 1B 26 Jul 01:50:23 01:54:38 24° 96° (E) 01:58:52 435.225
50 SAT 26 Jul 01:52:51 01:55:25 20° 264° (W) 01:58:02 437.505
ITUPSAT 1 26 Jul 01:59:35 02:01:35 13° 64° (ENE) 02:03:34 437.325
DX 1 26 Jul 02:19:26 02:22:45 21° 264° (W) 02:26:07 434.975-435.025
SRMSAT 26 Jul 02:31:31 02:35:27 18° 175° (S) 02:39:23 437.500
MOZHAYETS 4 26 Jul 02:35:34 02:39:00 21° 69° (ENE) 02:42:26
RS-15 26 Jul 02:42:20 02:53:07 43° 253° (WSW) 03:03:27 29.354- 29.394
ISS 26 Jul 02:48:53 02:51:27 21° 33° (NNE) 02:54:00 437.550
Oscar 19 26 Jul 02:54:51 02:59:46 46° 288° (WNW) 03:04:43 437.125/150
Tancredo 1 26 Jul 02:56:07 02:59:04 73° 41° (NE) 03:02:00 437.200
UKube-1 26 Jul 03:02:19 03:03:22 11° 268° (W) 03:04:25 .
ITAMSAT 1 26 Jul 03:11:14 03:14:03 15° 93° (E) 03:16:50 435.822/435.867
JUGNU 26 Jul 03:18:29 03:20:52 12° 194° (SSW) 03:23:14 437.505
BEESAT 26 Jul 03:20:02 03:24:49 84° 255° (WSW) 03:29:37 436.000
AO-7 26 Jul 03:25:47 03:32:53 30° 98° (E) 03:39:54 .
nSIGHT-1 26 Jul 03:29:38 03:32:47 53° 40° (NE) 03:35:57 .
Gurwin Techsat 1B 26 Jul 03:29:48 03:34:35 35° 290° (WNW) 03:39:21 435.225
ITUPSAT 1 26 Jul 03:34:07 03:38:50 60° 259° (W) 03:43:35 437.325
MOZHAYETS 4 26 Jul 04:11:55 04:15:56 30° 263° (W) 04:19:58
SRMSAT 26 Jul 04:19:59 04:23:56 18° 185° (S) 04:27:53 437.500
PCSat 26 Jul 04:23:50 04:28:59 47° 111° (ESE) 04:34:10 145.827
ISS 26 Jul 04:25:00 04:27:57 32° 229° (SW) 04:30:54 437.550
KKS-1 26 Jul 04:44:01 04:48:23 55° 74° (ENE) 04:52:46 437.445
ITAMSAT 1 26 Jul 04:48:43 04:53:47 54° 287° (WNW) 04:58:48 435.822/435.867
CUBESAT XI-V 26 Jul 04:48:51 04:53:24 69° 258° (WSW) 04:58:00 437.345
DOVE 4 26 Jul 04:59:35 05:00:51 11° 89° (E) 05:02:07 437.250
nSIGHT-1 26 Jul 05:08:09 05:08:49 10° 234° (SW) 05:09:28 .
YUBILEINY 26 Jul 05:08:39 05:16:05 30° 73° (ENE) 05:23:26 435.215
STARS 26 Jul 05:10:38 05:14:49 43° 73° (ENE) 05:19:02 437.465
AO-7 26 Jul 05:17:48 05:25:49 53° 293° (WNW) 05:33:48 .
SO-50 26 Jul 05:36:30 05:40:48 43° 114° (ESE) 05:45:05 436.795
XW-2F 26 Jul 05:54:17 05:54:40 10° 92° (E) 05:55:02 145.980 - 146.000
PCSat 26 Jul 06:08:28 06:12:35 22° 307° (NW) 06:16:43 145.827
SRMSAT 26 Jul 06:10:16 06:12:22 12° 195° (SSW) 06:14:27 437.500
XW-2D 26 Jul 06:21:18 06:24:33 27° 97° (E) 06:27:48 145.860 - 145.880
KKS-1 26 Jul 06:24:06 06:25:12 11° 268° (W) 06:26:18 437.445
STRAND 1 26 Jul 06:30:23 06:34:05 20° 67° (ENE) 06:37:46 437.568
XW-2B 26 Jul 06:31:12 06:34:41 35° 98° (E) 06:38:10 145.730 - 145.750
DOVE 4 26 Jul 06:33:48 06:39:02 70° 284° (WNW) 06:43:59 437.250
CUTE-I 26 Jul 06:44:48 06:49:55 45° 100° (E) 06:54:59 437.470
XW-2C 26 Jul 06:48:24 06:52:09 64° 101° (E) 06:55:53 145.795 - 145.815
STARS 26 Jul 06:49:03 06:51:19 14° 267° (W) 06:53:34 437.465
NUDT-PHONESAT 26 Jul 06:51:13 06:54:47 48° 100° (E) 06:58:21 437.300
HO-68 26 Jul 07:04:09 07:09:33 23° 95° (E) 07:14:55 435.675
YUBILEINY 26 Jul 07:04:46 07:13:06 51° 270° (W) 07:21:23 435.215
KAITUO 1B 26 Jul 07:07:22 07:11:06 87° 102° (ESE) 07:14:50 145.475/437.950
LilacSat-2 26 Jul 07:13:19 07:17:00 52° 284° (WNW) 07:20:42 437.200
SO-50 26 Jul 07:18:17 07:21:25 18° 310° (NW) 07:24:34 436.795
XW-2F 26 Jul 07:25:25 07:28:56 39° 286° (WNW) 07:32:27 145.980 - 146.000
CUBEBUG 2 26 Jul 07:31:11 07:33:13 13° 93° (E) 07:35:12 437.445
CUTE 1.7 + AOD 2 26 Jul 07:36:40 07:40:32 34° 98° (E) 07:44:26 437.475
SEEDS 26 Jul 07:46:34 07:50:11 27° 97° (E) 07:53:48 437.485
XW-2A 26 Jul 07:49:21 07:52:07 24° 97° (E) 07:54:52 145.665 - 145.685
XW-2D 26 Jul 07:56:11 07:58:28 16° 290° (WNW) 08:00:46 145.860 - 145.880
XW-2B 26 Jul 08:06:56 08:08:30 12° 292° (WNW) 08:10:05 145.730 - 145.750
STRAND 1 26 Jul 08:08:04 08:12:54 41° 261° (W) 08:17:46 437.568
UWE-3 26 Jul 08:24:54 08:28:41 33° 98° (E) 08:32:26 435.000/436.395/437.385
CUTE-I 26 Jul 08:25:47 08:29:34 20° 294° (WNW) 08:33:20 437.470
AAUSAT CUBESAT 2 26 Jul 08:25:58 08:29:48 35° 98° (E) 08:33:37 437.432
ZACube-1 26 Jul 08:35:56 08:39:16 23° 96° (E) 08:42:36 437.345
FO-29 26 Jul 08:41:35 08:48:14 34° 66° (ENE) 08:55:03 435.910
UNISAT 6 26 Jul 08:50:18 08:52:07 12° 66° (ENE) 08:53:55 437.425
HO-68 26 Jul 08:50:36 08:57:34 57° 290° (WNW) 09:04:30 435.675
Oscar 11 26 Jul 08:59:19 09:03:08 30° 97° (E) 09:06:57 .
CUBEBUG 2 26 Jul 09:06:05 09:10:00 38° 287° (WNW) 09:13:49 437.445
CUTE 1.7 + AOD 2 26 Jul 09:13:23 09:16:04 16° 291° (WNW) 09:18:43 437.475
AO-73 26 Jul 09:14:40 09:18:47 65° 101° (E) 09:22:52 145.935
NO-84 26 Jul 09:17:20 09:17:53 10° 121° (ESE) 09:18:25 435.350 FM
SEEDS 26 Jul 09:22:34 09:25:40 20° 290° (WNW) 09:28:46 437.485
XW-2A 26 Jul 09:22:58 09:24:36 13° 290° (WNW) 09:26:12 145.665 - 145.685
TIGRISAT 26 Jul 09:31:32 09:35:39 32° 72° (ENE) 09:39:43 435.000
PRISM 26 Jul 09:55:13 09:59:11 52° 74° (ENE) 10:03:12 437.425
UWE-3 26 Jul 10:02:22 10:04:50 16° 292° (WNW) 10:07:18 435.000/436.395/437.385
AAUSAT CUBESAT 2 26 Jul 10:02:25 10:04:56 16° 292° (WNW) 10:07:26 437.432
ZACube-1 26 Jul 10:12:15 10:15:25 22° 290° (WNW) 10:18:34 437.345
UNISAT 6 26 Jul 10:23:43 10:28:18 58° 260° (W) 10:32:50 437.425
FO-29 26 Jul 10:25:41 10:32:51 47° 262° (W) 10:40:24 435.910
AIST 2D 26 Jul 10:33:49 10:35:44 14° 70° (ENE) 10:37:39 435.315
Oscar 11 26 Jul 10:36:00 10:39:01 19° 291° (WNW) 10:42:02 .
M-CUBED/EXP-1 PRIME 26 Jul 10:43:18 10:46:50 64° 255° (WSW) 10:50:42 437.505
QB50P2 26 Jul 10:45:47 10:47:26 12° 66° (ENE) 10:49:06 145.880/145.840
DELFI C3 26 Jul 10:50:26 10:54:18 47° 285° (WNW) 10:58:08 145.870
NO-84 26 Jul 10:52:08 10:54:53 36° 317° (NW) 10:57:50 435.350 FM
NANOSAT C BR1 26 Jul 10:56:02 10:57:58 13° 67° (ENE) 10:59:53 145.865
EO-88 26 Jul 10:56:04 10:59:41 63° 283° (WNW) 11:03:16 145.990 - 145.960
EO-79 26 Jul 10:56:29 10:58:52 15° 68° (ENE) 11:01:16 145.935-145.965
LO-87 26 Jul 10:57:32 10:58:49 12° 93° (E) 11:00:05 145.935 - 145.965
BEESAT 3 26 Jul 11:06:25 11:07:50 12° 108° (ESE) 11:09:16 437.485
TIGRISAT 26 Jul 11:08:53 11:12:18 20° 265° (W) 11:15:43 435.000
AO-85 26 Jul 11:11:10 11:13:13 14° 110° (ESE) 11:15:14 145.980
